Regional Weather Roundup
Issued by NWS

Home | Current Version | Previous Version | Graphics & Text | Print | Product List | Glossary On
Versions: 1 2 3 4 5 6 7 8 9 10 11 12 13 14 15 16 17 18 19 20 21 22 23 24 25 26 27 28 29 30 31 32 33 34 35 36 37 38 39 40 41 42 43 44 45 46 47 48 49 50
000
ASUS43 KLMK 310202
RWRKY
KENTUCKY REGIONAL WEATHER ROUNDUP
NATIONAL WEATHER SERVICE LOUISVILLE KY
1000 PM EDT THU JUL 30 2015

NOTE "FAIR" INDICATES FEW OR NO CLOUDS BELOW 12,000 FEET
WITH NO SIGNIFICANT WEATHER AND/OR OBSTRUCTIONS TO VISIBILITY.

KYZ001>023-026-027-061>063-070>075-310300-
WESTERN AND SOUTH CENTRAL KENTUCKY

CITY           SKY/WX    TMP DP  RH WIND       PRES   REMARKS
PADUCAH        CLEAR     71  67  87 SW3       30.08R
HENDERSON      PTCLDY    72  66  83 CALM      30.06R
OWENSBORO      PTCLDY    75  66  73 CALM      30.08R
HOPKINSVILLE   CLEAR     75  63  65 NW2       30.08R
BOWLING GREEN  PTCLDY    77  61  57 CALM      30.08R
GLASGOW        NOT AVBL
$$

KYZ024-025-028>034-038-045-046-053-310300-
NORTH CENTRAL KENTUCKY

CITY           SKY/WX    TMP DP  RH WIND       PRES   REMARKS
LOUISVILLE/SDF PTCLDY    77  59  53 W8        30.05R
LOUISVILLE/LOU PTCLDY    77  59  53 CALM      30.06R
FORT KNOX      PTCLDY    67  63  86 CALM      30.06R
$$

KYZ035>037-039>044-047>052-055>060-089>105-310300-
NORTHEAST KENTUCKY

CITY           SKY/WX    TMP DP  RH WIND       PRES   REMARKS
LEXINGTON      PTCLDY    73  60  63 CALM      30.08R
COVINGTON      PTCLDY    76  60  56 W3        30.05R
FRANKFORT      PTCLDY    70  63  78 CALM      30.06R
$$

KYZ054-064>069-076>088-106>120-310300-
SOUTHEAST KENTUCKY

CITY           SKY/WX    TMP DP  RH WIND       PRES   REMARKS
JACKSON        CLEAR     75  58  55 N3        30.08R
LONDON         CLEAR     76  58  53 NW6       30.08R
SOMERSET       NOT AVBL
MIDDLESBORO    CLEAR     72  65  81 NW5       30.08R
MONTICELLO     CLEAR     69  63  81 CALM      30.11R
$$



USA.gov is the U.S. government's official web portal to all federal, state and local government web resources and services.